Theta_e
314 309 311 315 316 314 312 312 313 315 317 316 317 321 325 325 328 327 318 319 319 314 320 326 323 319 322 321 317 316 316 315 316 316 317 318 319 319 318 317 320 319 318 319 320 321 321 319 320 320 318 317 315 314 317 314 314 318 317 316 321 326 326 324 325 329 329 327 327 326 323 325 326 323 323 323 321 325 326 325 334 341 341 344 348 351 353
315 309 310 315 316 314 313 312 314 317 319 318 318 324 326 322 324 326 322 319 318 318 322 327 325 321 319 315 313 315 315 314 316 315 315 317 317 320 320 317 319 319 317 320 320 321 322 320 320 322 320 318 317 315 316 314 314 314 315 318 321 323 327 329 329 331 332 332 330 327 324 324 324 321 322 322 320 326 331 335 344 344 339 343 349 352 352
315 309 311 315 316 315 313 312 315 318 321 320 319 323 326 326 327 329 326 320 317 321 321 322 323 321 322 320 315 315 315 314 315 314 314 316 316 319 320 318 318 318 318 320 320 321 323 322 322 323 323 320 316 315 316 315 313 316 325 331 325 322 328 333 334 333 330 330 329 326 325 324 322 321 320 320 323 328 329 334 344 344 340 343 347 350 352
314 308 311 314 316 315 313 313 316 318 322 323 320 321 326 331 333 331 326 321 318 319 318 317 319 320 326 326 316 313 315 314 313 313 314 316 315 317 319 317 317 319 319 320 320 319 320 323 325 323 324 323 317 316 317 315 318 329 336 335 330 330 333 335 341 341 335 333 334 333 328 322 316 316 319 318 322 331 335 337 341 344 346 348 347 348 350
313 308 311 314 316 315 313 314 316 319 324 325 324 325 328 330 331 325 321 322 321 319 316 316 317 319 323 321 313 313 315 314 315 315 315 317 316 319 321 318 319 321 322 323 322 320 320 323 326 324 324 324 320 317 316 316 327 336 330 329 333 334 329 327 333 335 331 331 334 331 325 321 316 315 318 317 320 327 331 332 337 342 346 348 349 348 348
313 308 310 314 316 316 314 314 316 320 325 324 326 332 332 328 327 322 320 323 323 317 315 317 318 320 324 319 314 316 316 314 315 315 315 316 317 322 323 320 321 322 326 330 328 326 328 328 328 328 326 326 325 324 319 319 326 328 321 325 331 327 322 322 322 322 322 323 325 323 320 320 319 318 316 316 321 325 325 328 340 349 348 347 347 347 347
313 308 310 313 316 316 314 315 317 321 325 323 322 327 329 327 329 328 326 328 328 320 315 318 320 324 332 327 317 316 315 314 315 315 317 320 319 322 323 321 321 320 326 337 334 329 330 329 327 327 327 327 328 328 327 325 327 324 318 321 325 324 325 325 321 320 320 321 322 319 318 319 319 319 318 317 324 333 335 336 343 350 347 344 346 348 348
312 308 310 312 315 316 314 315 317 320 325 325 321 323 324 325 329 330 331 335 336 325 317 323 326 327 333 328 318 316 315 313 313 313 316 320 319 319 320 320 321 318 320 327 325 322 327 329 326 324 324 327 326 325 324 323 326 327 323 320 322 322 323 324 325 324 321 321 322 319 317 318 318 318 319 319 323 331 342 345 344 346 346 344 345 348 348
312 308 310 311 314 317 315 314 317 319 323 326 326 325 322 320 322 326 332 341 344 332 322 326 328 325 327 326 320 318 317 314 315 315 316 317 316 317 320 322 323 320 319 320 317 315 319 322 320 317 318 322 322 325 326 322 323 328 326 322 321 320 323 328 332 331 325 321 320 319 318 320 318 317 319 321 320 322 335 346 346 345 345 344 345 347 346
312 308 310 310 312 316 316 314 315 318 322 325 327 328 324 321 323 326 332 342 344 335 327 325 324 322 322 322 320 319 319 318 320 320 317 315 315 316 320 324 326 323 321 320 317 313 313 315 314 313 315 316 317 322 327 323 323 327 326 324 323 323 326 327 328 330 328 321 318 320 322 320 318 317 319 323 326 326 334 344 345 342 343 343 343 345 344
314 309 309 310 311 314 316 315 314 316 320 323 325 326 324 323 326 329 336 347 346 335 328 324 325 323 320 318 317 318 318 319 321 321 317 315 316 316 318 326 331 325 318 317 317 316 314 314 314 312 312 314 316 318 319 319 326 330 324 323 328 330 329 326 324 326 325 320 322 329 328 320 318 319 320 325 331 334 338 342 342 341 340 340 341 342 342
317 310 308 310 310 312 315 316 315 315 317 321 324 325 323 323 326 330 338 349 349 339 331 324 320 319 317 315 315 317 318 319 319 319 317 315 316 315 315 322 329 323 315 315 318 317 316 317 318 316 316 319 320 317 315 316 323 326 323 324 332 334 330 329 327 323 323 325 328 328 324 320 321 321 322 326 331 335 339 341 340 339 339 339 339 339 339
319 311 308 310 310 311 314 316 315 314 315 321 324 324 322 322 327 333 337 345 349 342 337 330 320 316 317 316 315 317 318 318 320 320 319 317 316 316 314 315 318 316 313 316 320 319 321 325 323 319 322 329 329 323 323 322 320 322 324 326 330 330 329 334 335 327 322 325 327 324 321 323 328 325 322 327 330 332 338 340 337 336 338 339 339 338 337
321 312 308 309 310 310 312 315 315 314 314 319 324 325 323 322 326 331 334 340 347 343 335 330 323 320 321 319 318 321 319 317 319 319 316 317 316 315 315 315 314 313 313 320 327 325 323 326 324 320 325 333 332 328 328 326 322 321 322 323 330 334 331 333 335 329 322 322 327 330 326 323 327 328 324 325 325 325 335 339 335 334 337 337 337 337 336
322 314 308 309 310 310 311 313 315 315 314 316 322 325 325 323 324 327 329 335 344 343 333 326 322 322 322 320 321 327 326 322 322 321 320 322 318 314 316 315 313 313 314 321 330 327 323 325 326 323 324 327 326 325 327 326 321 320 324 327 333 336 331 330 332 332 329 327 328 330 325 320 325 329 324 320 321 323 331 335 331 332 335 336 335 335 334
322 315 307 308 311 310 310 312 314 315 315 315 318 324 326 325 323 323 327 333 338 339 331 321 320 324 327 324 323 329 331 330 328 327 330 331 322 314 315 316 314 316 321 329 333 329 327 329 325 322 323 324 324 324 327 328 323 320 324 327 329 333 335 336 335 333 333 331 325 324 325 327 333 335 328 320 320 323 331 335 331 328 331 333 334 334 333
322 316 308 307 310 310 310 311 312 315 315 314 316 322 326 327 322 321 328 332 333 338 334 322 320 329 334 331 328 328 331 333 330 328 332 333 325 317 316 318 318 319 326 334 335 331 331 329 324 324 326 325 325 325 324 326 324 322 323 324 325 331 333 331 330 331 333 331 325 327 332 332 331 332 328 322 322 324 331 335 333 328 327 330 332 332 332
322 317 308 307 310 310 310 311 311 313 315 314 316 321 325 328 324 321 326 329 332 338 336 322 318 326 327 326 327 325 325 327 329 331 336 335 328 322 320 321 321 321 325 332 332 329 328 326 326 332 332 326 325 324 321 320 322 324 326 327 328 329 327 325 325 328 330 328 324 328 337 335 328 326 327 327 326 323 325 330 332 329 326 327 330 330 329
322 317 308 306 309 309 310 311 310 312 314 314 315 320 326 328 324 320 325 328 328 331 330 320 318 323 320 319 325 325 324 327 330 331 333 331 329 327 325 324 325 325 329 332 330 326 327 327 329 334 335 333 330 324 317 318 322 324 325 328 331 331 327 325 324 323 326 329 326 328 336 336 328 327 332 334 327 320 323 328 330 329 324 323 327 329 328
322 316 308 305 308 309 310 311 310 311 313 314 315 320 325 326 323 321 324 326 327 331 330 321 319 322 320 318 321 321 323 329 332 332 330 329 331 335 332 329 330 330 333 334 331 327 330 331 329 327 329 331 331 326 322 324 327 323 319 322 330 332 328 326 327 323 323 325 324 327 334 333 327 327 333 336 331 327 330 331 327 327 325 322 324 325 324
321 317 309 305 307 309 310 311 310 311 312 313 314 317 320 323 323 320 320 323 327 333 329 319 318 322 323 321 320 318 318 323 327 329 329 328 330 332 331 333 334 330 329 333 332 327 329 331 328 327 329 330 329 327 324 326 329 326 319 320 328 328 324 327 328 323 321 323 322 326 332 333 332 333 333 332 332 336 338 331 325 326 326 324 324 324 322
321 319 311 305 306 308 309 310 311 311 311 312 313 314 317 321 321 318 317 321 326 328 325 320 321 322 321 321 321 318 317 319 320 322 325 328 331 331 330 333 333 325 325 334 336 329 329 331 328 327 330 330 329 328 325 326 332 329 321 321 326 326 328 333 332 326 328 331 328 329 333 332 330 333 333 330 331 336 334 328 325 326 324 323 325 324 322
321 320 312 306 306 308 309 310 311 310 310 312 313 313 318 322 321 317 317 321 324 327 324 321 323 326 324 321 320 318 317 317 317 317 319 325 331 332 330 327 325 324 329 339 340 333 330 332 329 327 328 327 327 329 328 328 330 327 323 323 323 324 328 332 329 325 327 330 329 328 329 328 327 328 330 328 327 327 325 324 325 324 321 322 326 326 324
321 319 311 306 306 307 309 310 310 311 311 311 311 312 317 322 321 320 322 324 327 330 329 325 328 330 327 322 320 319 318 317 316 316 317 320 325 330 330 325 325 331 332 331 333 333 332 332 331 329 328 327 327 329 329 327 325 325 327 329 326 324 325 326 325 324 322 323 326 327 326 327 328 328 328 328 326 323 322 323 324 322 321 321 322 324 325
321 318 311 306 306 307 308 309 310 310 311 311 311 311 315 319 321 322 324 326 328 329 332 334 334 328 322 321 319 318 318 316 316 316 317 317 319 323 324 320 324 331 329 325 332 336 332 331 331 329 326 326 326 328 329 329 328 326 328 331 331 327 325 325 326 327 323 321 324 327 327 327 327 325 325 326 326 324 322 322 323 323 322 320 318 319 321
321 317 310 306 306 306 308 309 310 310 311 311 311 311 313 317 321 322 321 323 325 325 327 333 334 325 319 321 321 319 318 317 317 318 318 317 317 318 319 319 321 325 324 327 336 339 332 330 330 328 326 326 326 326 327 330 331 328 328 333 333 327 324 325 327 331 332 328 327 329 327 325 325 327 326 325 324 323 323 323 323 323 323 321 318 317 318
320 316 309 306 306 306 307 310 310 310 311 311 311 311 314 319 323 322 319 320 325 327 327 331 333 325 320 322 321 320 321 319 318 319 318 318 318 316 316 321 326 327 326 328 333 334 332 330 327 326 327 326 326 327 328 328 328 326 329 334 333 326 326 329 328 330 333 331 328 328 326 323 325 326 327 326 326 324 322 322 323 324 325 323 320 317 316
319 315 309 307 306 306 308 310 310 310 311 311 310 312 316 321 322 321 319 320 324 328 329 331 330 325 324 325 322 320 321 320 319 320 319 318 320 317 316 321 328 330 330 330 330 330 331 329 327 328 329 327 327 330 331 328 326 326 330 334 331 325 327 332 332 333 334 332 329 328 328 328 326 324 325 327 327 326 325 324 324 323 321 321 320 320 319
318 314 309 307 307 307 308 310 310 310 310 311 312 316 320 322 321 320 320 321 322 325 327 330 330 327 326 325 322 320 322 320 319 320 320 319 320 319 318 322 328 331 332 333 333 333 332 331 330 331 329 327 328 330 329 327 328 329 331 332 330 327 329 334 335 334 333 331 329 327 327 327 326 324 324 323 322 324 326 327 328 325 318 315 318 319 318
318 314 310 308 307 307 309 310 310 311 310 311 317 322 325 324 321 319 319 319 321 324 327 329 330 329 326 323 322 322 322 321 320 321 321 320 321 320 319 323 328 332 335 336 335 333 331 329 329 328 326 325 328 329 326 326 328 329 329 328 329 330 330 330 331 330 328 327 327 326 325 325 325 325 323 320 319 321 323 325 328 328 321 316 316 315 313
317 313 310 308 307 307 309 310 310 310 310 313 321 328 329 328 324 319 316 316 319 323 325 327 328 328 327 325 324 322 322 321 321 322 322 321 322 321 321 323 326 330 336 338 333 329 329 329 329 328 326 326 329 330 326 325 328 329 327 327 328 329 329 328 328 328 327 327 328 327 326 326 326 325 325 323 320 320 322 322 322 323 321 319 318 315 313
316 313 310 307 307 308 310 310 310 311 310 312 318 323 324 322 320 317 316 316 318 322 326 327 328 327 327 327 325 322 321 322 322 325 327 326 325 325 325 326 329 330 333 334 331 328 329 330 330 328 325 326 329 330 326 325 327 328 327 327 327 327 327 327 326 326 327 328 327 325 326 327 326 324 324 323 319 318 319 319 319 320 319 318 318 318 315
315 312 309 307 307 309 310 310 310 311 310 311 315 317 317 317 318 317 316 316 318 321 324 326 327 326 326 327 328 325 324 326 329 331 331 328 327 328 329 331 333 330 327 328 330 329 328 330 330 327 325 325 327 327 326 326 327 326 325 326 325 325 325 326 324 325 327 327 325 324 324 325 324 321 320 320 319 318 318 318 318 320 319 318 321 322 317
315 311 307 307 309 310 311 311 311 312 314 316 319 319 318 318 318 316 315 318 321 323 323 324 327 328 327 328 330 328 325 327 330 331 329 326 326 329 331 331 331 329 326 326 328 328 329 331 330 326 324 324 325 326 326 325 324 323 323 324 324 324 325 325 324 323 323 323 323 322 321 320 320 320 321 323 322 319 318 318 319 321 322 323 325 322 317
313 308 306 308 310 311 311 311 312 314 317 319 321 321 320 319 317 316 318 320 323 326 326 324 326 328 329 331 333 329 324 326 329 330 330 328 326 329 332 330 328 328 327 325 326 328 329 330 327 325 324 323 324 325 326 324 323 323 324 323 322 323 324 323 322 322 322 323 323 322 320 320 321 321 324 326 324 321 319 319 319 321 323 325 325 321 317
310 307 307 310 311 312 313 313 314 316 319 321 322 321 319 318 316 316 318 320 321 325 328 327 327 329 330 331 332 328 324 327 330 328 328 329 328 329 330 329 329 330 327 324 325 328 327 325 325 325 324 322 323 325 325 324 324 323 322 322 322 322 322 321 320 321 321 322 323 322 321 321 322 322 323 324 323 322 323 322 321 322 324 325 325 323 319
308 307 310 313 315 317 319 319 318 319 321 321 319 317 317 318 318 319 320 320 320 321 323 325 329 331 330 330 331 327 323 327 329 326 326 329 330 328 328 328 329 330 327 325 327 328 325 324 327 326 323 323 324 324 322 322 324 323 321 322 322 321 321 321 321 321 321 321 322 322 321 319 319 320 321 322 322 323 323 323 322 322 322 322 321 321 318
307 308 312 316 320 325 326 324 321 319 319 318 317 318 319 319 321 323 322 321 322 322 322 323 328 330 329 330 330 326 323 328 330 326 326 329 327 324 327 330 329 328 326 325 325 325 324 324 327 327 324 322 322 321 321 321 322 322 322 323 323 321 322 322 321 319 320 320 320 321 320 319 318 319 318 319 320 320 321 320 317 316 317 317 316 315 314
309 312 313 317 323 327 326 323 320 319 318 317 319 323 323 322 324 326 325 323 325 325 323 324 328 330 329 330 330 326 324 328 329 326 327 329 326 323 326 327 324 324 326 324 320 321 324 325 324 326 326 324 321 321 322 321 320 321 322 321 319 318 319 320 319 318 318 319 319 318 318 318 318 318 317 318 318 318 316 315 314 314 314 313 313 312 312
313 316 318 322 324 323 321 318 317 318 320 321 322 324 324 324 327 329 327 326 328 327 325 326 329 328 327 329 330 327 323 326 330 329 327 327 326 324 323 322 321 322 325 323 320 320 324 323 321 323 326 324 321 321 321 320 320 322 320 316 314 314 314 315 314 314 315 316 316 315 315 315 315 316 317 317 318 318 316 313 312 312 312 311 312 312 312
316 318 320 322 321 319 318 318 317 319 322 324 325 326 326 327 328 328 328 329 330 328 326 327 329 328 326 326 329 328 324 324 328 329 326 326 327 324 323 322 322 322 323 323 321 321 323 323 322 323 324 322 320 319 319 319 321 321 318 314 313 314 314 313 313 312 313 314 314 314 314 315 315 315 315 315 315 316 314 311 310 311 311 311 311 311 310
316 316 317 317 316 317 319 319 320 322 324 325 326 327 327 327 326 327 329 331 330 328 327 327 329 332 330 327 328 331 327 323 325 327 326 325 326 324 324 323 321 321 324 324 320 319 322 324 324 323 322 320 319 319 319 319 321 321 318 313 312 313 313 312 312 312 312 312 312 312 313 315 315 314 314 315 314 313 312 311 311 311 311 311 310 310 309
315 315 316 316 317 320 321 322 323 324 325 325 325 325 325 324 325 328 331 331 328 328 328 328 328 329 327 324 326 328 325 323 326 329 327 325 323 323 325 325 323 324 327 324 320 321 324 324 323 323 322 321 320 321 320 319 320 320 316 312 310 311 311 310 310 311 311 311 311 311 312 314 315 314 314 315 314 313 312 311 311 311 310 310 309 309 308
316 317 318 320 323 324 323 322 325 328 329 327 324 324 324 325 328 331 333 333 331 331 331 331 331 330 327 325 326 327 325 325 327 327 326 325 323 322 323 326 326 326 324 319 318 321 322 320 321 323 322 319 318 318 317 317 317 316 314 312 309 309 309 309 309 309 309 309 310 310 311 312 314 314 314 314 313 312 311 311 311 310 309 309 308 308 308
319 322 321 322 324 322 318 317 321 327 331 329 325 324 327 329 332 333 333 332 332 332 331 331 331 331 329 327 327 328 328 328 326 324 324 325 324 321 323 326 326 321 317 315 317 318 318 317 318 319 318 315 314 314 314 315 314 313 313 313 311 309 309 309 309 308 308 308 309 309 309 311 313 314 313 313 312 311 310 310 310 309 308 308 308 307 307
321 324 321 320 321 320 318 318 321 324 327 326 325 328 332 335 336 337 334 330 330 332 333 331 330 329 329 328 327 328 330 328 325 324 325 325 323 322 323 322 319 314 313 316 318 317 317 316 315 315 314 313 312 313 314 314 313 311 312 313 312 310 309 308 308 308 307 308 308 308 308 310 312 313 313 312 311 311 310 310 310 308 307 307 307 306 306
322 323 319 319 321 320 319 320 322 322 324 327 329 332 334 334 332 331 331 330 330 333 334 332 329 328 329 328 326 327 329 327 325 324 323 322 321 320 318 315 313 313 315 318 318 316 314 313 313 313 313 312 311 312 312 313 312 311 311 311 311 310 308 308 308 308 308 308 308 308 308 309 311 312 311 310 310 310 311 310 309 307 306 306 306 305 305
324 323 321 323 324 322 320 321 322 322 327 333 333 331 331 330 328 329 332 331 330 331 332 331 327 326 328 327 325 325 324 321 319 320 319 318 317 316 313 313 314 314 315 317 316 313 312 313 313 312 312 312 312 312 312 312 311 311 311 310 310 309 308 308 308 308 308 308 308 308 308 310 310 311 311 310 310 310 310 309 308 306 306 306 305 304 304
320 321 321 323 324 323 323 323 321 323 332 337 334 330 330 331 332 334 334 331 329 331 333 332 329 328 329 326 321 319 319 316 314 314 314 313 313 313 314 316 318 317 316 315 313 312 313 314 313 312 312 312 312 312 311 311 310 310 309 309 309 309 308 308 308 308 308 308 308 308 309 310 310 310 310 310 310 310 310 308 307 306 305 304 304 304 304
317 319 322 323 323 324 324 322 320 325 333 336 333 331 331 333 334 333 330 330 333 334 330 327 328 329 328 322 316 316 318 317 314 313 313 313 313 316 319 320 320 319 316 314 313 312 313 313 313 313 312 312 311 311 311 310 309 308 308 308 308 308 308 308 308 308 308 308 307 308 308 309 309 309 310 310 309 309 309 308 306 305 305 305 304 304 304
317 318 322 323 322 322 323 322 320 323 328 332 334 335 334 334 336 333 328 328 331 330 326 326 329 327 322 318 316 316 317 316 314 314 315 314 314 318 323 323 319 316 314 312 313 313 313 313 313 313 312 311 311 311 310 308 308 308 308 308 308 308 309 309 308 308 308 308 308 308 308 309 308 308 309 309 309 309 308 307 305 304 304 304 304 304 304
318 318 321 322 321 320 320 320 320 322 325 329 335 336 332 332 335 334 329 327 328 328 328 329 327 321 317 318 318 317 316 315 315 316 317 315 315 319 321 319 315 312 311 312 312 313 313 313 313 312 311 311 310 309 308 307 308 308 308 308 308 308 308 308 309 309 308 308 308 308 308 308 308 307 308 308 308 307 307 306 305 304 304 304 304 304 304
Wind_Speed
24 25 24 24 26 27 29 30 31 33 32 24 17 10 2 1 4 9 9 5 5 5 1 3 1 2 4 2 2 2 2 2 5 6 5 4 2 2 2 1 2 2 2 2 2 3 2 2 2 1 1 1 2 4 6 6 4 3 2 3 3 1 2 3 4 5 4 6 6 7 7 3 2 2 1 1 2 3 5 4 3 4 3 3 4 2 2
23 24 24 23 25 27 28 30 31 32 30 22 13 5 0 1 4 7 8 4 3 5 1 3 1 2 1 3 3 3 3 3 3 4 4 4 3 3 2 1 2 2 2 3 2 2 2 2 2 1 1 1 4 5 6 6 4 3 1 2 3 2 1 2 2 4 5 6 7 9 9 6 3 4 5 4 4 3 5 2 3 4 2 3 6 2 1
23 24 24 23 24 26 27 29 30 31 28 19 8 1 1 2 2 4 7 5 3 3 3 4 2 2 3 3 2 2 3 2 3 3 4 4 3 2 2 1 2 3 3 3 2 2 3 1 1 2 1 1 3 4 6 5 3 3 4 3 1 1 0 2 3 2 1 2 2 2 4 4 3 5 7 7 5 2 5 3 4 3 2 3 5 4 3
23 24 23 23 24 26 27 28 29 29 26 17 6 1 0 2 2 3 6 5 4 0 2 4 5 3 4 3 2 1 0 2 3 5 3 3 4 3 3 3 2 3 4 2 1 2 2 1 1 1 1 2 2 4 5 4 5 7 7 4 2 2 1 2 4 3 3 4 4 4 2 3 5 7 10 9 6 4 5 4 3 4 4 3 1 8 12
22 23 22 22 24 26 27 28 29 27 23 16 6 0 2 2 1 2 3 4 3 3 3 5 5 2 3 2 2 2 2 2 4 5 3 3 4 3 4 6 3 2 4 3 1 2 2 3 3 1 1 1 3 4 4 5 8 8 7 5 3 3 3 3 2 0 2 4 6 5 4 3 4 7 10 9 7 7 6 3 4 7 5 2 1 10 16
22 23 22 22 23 25 27 28 29 26 19 16 9 1 1 2 1 0 1 1 1 2 3 4 5 4 4 2 2 4 6 5 3 4 4 3 4 3 4 9 6 2 4 3 2 3 3 4 4 2 2 3 4 5 5 6 9 8 5 4 3 4 1 2 1 3 6 5 4 5 5 3 4 7 9 11 9 6 5 1 3 5 5 6 6 9 12
21 22 21 21 21 24 26 26 29 24 15 14 13 5 2 2 1 3 2 1 2 2 2 3 5 5 4 3 3 4 6 6 3 3 4 5 5 3 3 6 8 8 6 4 4 4 2 1 3 2 3 4 3 3 4 5 7 6 5 4 2 4 1 4 2 3 6 8 7 9 9 6 5 7 10 12 10 6 7 4 4 6 9 14 14 11 8
20 21 21 21 20 23 25 25 28 25 15 11 12 7 3 2 1 3 3 3 4 3 4 4 5 4 3 3 3 2 5 4 2 3 4 3 5 5 5 5 7 9 9 7 5 4 2 2 2 2 3 3 2 1 1 3 5 6 4 4 3 3 2 5 4 3 4 7 8 12 12 5 3 8 10 10 9 9 10 9 9 10 11 15 17 14 6
19 20 20 20 19 21 23 24 26 26 20 12 7 6 7 4 4 2 1 3 5 4 4 3 4 3 2 2 2 3 4 4 2 3 2 3 3 4 4 6 6 6 9 8 5 5 4 2 3 3 2 0 1 2 3 2 2 4 4 3 4 3 2 4 4 4 3 6 8 11 11 3 6 10 11 9 5 5 5 5 7 10 12 13 13 11 5
18 19 19 19 18 19 21 23 24 24 23 16 6 5 12 9 4 3 2 0 4 4 4 3 4 1 2 1 3 4 4 4 4 3 3 4 6 5 5 7 5 5 8 6 3 4 5 4 5 3 1 1 0 1 3 3 4 0 2 2 3 3 2 2 3 3 3 7 7 8 7 4 6 6 7 6 4 7 5 4 7 13 15 12 8 6 5
17 18 18 18 17 17 18 20 22 23 23 19 8 5 12 10 4 3 3 1 3 3 3 3 2 2 1 4 6 6 6 7 5 3 0 4 7 7 6 7 5 3 3 4 5 4 5 6 4 4 4 4 4 4 2 4 5 3 2 2 3 4 3 1 1 3 2 6 5 5 4 4 2 5 5 6 6 8 9 7 6 8 8 9 10 10 9
17 17 18 17 16 15 16 17 19 21 21 18 10 8 15 13 5 2 4 2 3 3 3 3 2 3 4 7 8 6 6 6 4 4 3 3 6 7 7 6 5 1 4 5 4 5 6 5 5 5 6 5 5 6 6 4 3 4 5 4 2 5 4 2 1 3 1 4 5 5 2 1 2 6 6 7 8 11 14 10 7 10 12 14 15 13 11
16 16 17 17 15 14 14 14 16 18 18 16 11 11 18 17 6 1 3 3 2 3 2 4 5 8 7 7 8 6 5 5 5 4 4 3 4 5 5 5 3 2 3 2 5 6 4 4 4 3 5 6 6 6 6 4 2 5 5 4 4 3 3 2 1 1 0 2 4 3 2 1 3 6 7 6 6 8 12 10 8 8 10 13 15 13 12
14 16 16 16 15 13 13 13 14 15 15 14 11 11 17 18 8 1 2 3 1 4 1 2 5 7 7 5 6 5 4 5 5 4 2 2 4 4 3 2 1 3 3 4 5 5 2 2 3 3 4 5 5 4 5 4 2 6 6 4 5 4 3 2 2 1 1 1 1 1 2 3 4 4 4 3 3 2 5 7 6 7 4 5 12 16 14
13 15 16 16 14 13 12 12 12 13 13 13 10 10 14 18 12 3 0 3 1 3 3 3 4 4 5 3 4 5 3 4 3 1 2 2 2 3 2 2 1 5 5 4 3 3 2 2 2 2 2 2 1 2 3 3 2 3 5 5 5 4 3 3 1 1 2 3 2 2 1 2 2 4 5 5 4 3 5 9 4 3 3 2 6 14 16
12 13 14 15 14 13 12 11 11 11 12 12 10 9 12 17 16 8 2 2 2 1 3 6 5 3 4 2 3 5 3 1 1 1 4 4 1 2 1 2 3 4 4 4 2 3 3 2 1 1 1 2 2 1 1 2 3 3 4 5 6 5 3 4 4 1 2 4 2 0 2 3 5 5 6 7 6 2 7 9 2 3 1 4 5 8 11
11 11 13 14 14 12 11 11 11 10 11 12 11 9 10 15 18 12 3 2 2 1 3 6 6 4 4 3 3 2 2 2 2 3 0 3 1 2 1 2 4 4 4 4 3 3 4 2 1 1 1 2 2 1 1 1 1 3 4 4 5 5 3 3 3 0 1 2 1 1 2 3 4 4 6 8 5 3 7 5 2 4 1 7 12 12 11
10 10 11 13 13 12 11 11 10 9 10 11 10 8 9 13 17 13 4 2 3 1 4 7 7 4 2 1 2 1 1 2 3 2 0 2 1 1 1 0 2 3 2 4 3 3 3 1 1 2 1 2 2 3 0 1 0 2 1 1 3 3 1 1 2 2 1 1 1 2 2 3 4 4 6 7 4 5 5 3 5 3 2 3 11 14 13
9 9 10 12 13 12 10 10 10 9 9 10 9 7 9 12 16 15 7 2 2 1 6 8 6 4 5 3 1 2 3 3 3 3 2 2 2 2 1 2 1 2 2 4 2 2 2 1 1 3 2 2 2 2 1 1 2 2 1 2 1 1 1 1 1 2 2 2 2 1 3 3 3 4 5 5 4 2 2 3 3 0 3 4 5 8 10
9 8 9 11 12 12 11 9 9 9 8 9 9 7 9 11 13 14 9 2 1 1 5 5 5 5 6 4 3 4 4 3 3 4 3 1 2 2 4 3 1 2 3 3 2 1 2 1 2 2 2 1 1 1 0 2 3 2 2 2 1 2 1 1 2 2 0 1 2 1 2 4 3 3 4 4 3 5 4 2 2 2 4 6 5 5 7
9 7 8 10 12 12 11 9 9 9 8 9 9 6 6 9 10 11 8 2 2 1 3 5 8 9 8 6 8 5 3 5 2 3 3 2 2 3 3 3 2 0 1 1 1 1 1 0 2 1 1 0 0 1 1 2 5 3 3 3 1 2 2 1 2 1 1 1 1 2 4 6 3 2 1 1 2 5 5 4 3 3 4 5 5 5 7
9 7 7 9 10 12 11 8 8 8 7 8 9 6 6 9 10 11 9 2 3 3 6 10 13 13 11 10 11 6 6 8 5 4 4 0 2 2 3 1 0 1 1 2 3 1 1 1 1 1 1 1 2 1 1 1 3 5 0 3 1 3 4 4 2 1 2 3 4 5 5 4 1 4 4 3 3 4 5 6 5 4 3 3 4 6 7
9 6 6 8 9 11 11 8 7 7 7 8 7 5 6 10 12 13 9 2 1 4 8 10 10 10 9 7 6 5 1 5 7 7 7 3 2 2 1 1 1 1 1 2 4 3 1 1 2 2 0 1 1 2 2 1 0 3 2 0 1 2 1 2 2 1 2 0 1 1 1 1 3 4 3 4 6 4 5 7 5 4 5 5 5 6 6
7 5 5 6 8 10 10 8 7 6 6 7 6 5 6 8 13 16 11 4 3 3 4 4 2 2 7 7 6 10 6 2 5 5 5 5 2 1 2 1 1 2 1 1 3 3 3 1 1 2 1 1 1 2 1 1 1 1 2 2 3 4 4 2 2 2 1 2 3 3 2 2 3 5 4 4 6 5 6 7 6 5 6 6 6 7 6
6 4 4 5 8 10 9 8 6 5 6 6 5 5 5 5 9 12 8 2 2 2 1 3 2 3 12 13 3 6 6 6 6 3 3 5 5 4 2 0 4 5 3 3 1 4 3 1 1 2 1 1 0 1 1 0 1 0 2 1 3 3 3 3 3 2 2 1 4 4 2 2 2 3 3 3 5 6 6 7 7 7 6 7 8 9 7
5 3 3 4 7 9 9 8 6 5 6 5 4 4 4 4 8 9 6 2 2 2 1 2 5 8 16 15 8 5 1 6 7 5 6 6 5 6 6 5 6 5 4 2 3 4 3 2 2 2 1 1 0 1 1 1 1 1 0 3 3 1 2 1 1 2 2 2 5 6 6 6 7 7 5 3 2 5 7 7 7 7 8 7 8 10 10
4 3 3 4 6 9 9 7 5 4 4 4 4 4 3 4 6 8 6 4 2 1 1 2 4 10 15 11 9 13 7 5 7 5 3 4 5 8 9 8 5 3 4 3 2 2 3 2 2 2 2 1 1 1 1 1 1 2 2 4 1 1 2 0 3 2 2 2 3 2 3 2 3 5 6 6 4 2 5 6 6 7 8 8 8 9 10
4 3 3 4 6 9 9 7 4 3 4 3 3 3 4 4 4 5 4 4 2 2 2 2 4 8 10 8 10 15 9 3 7 5 1 2 4 8 10 8 5 3 4 3 2 2 3 2 1 1 1 1 1 1 1 1 1 0 3 4 1 2 2 2 3 2 3 5 5 1 3 3 3 4 5 5 5 5 5 2 2 5 7 8 9 8 7
4 4 4 5 6 9 8 6 3 2 3 3 2 3 5 4 3 2 2 3 3 2 1 1 3 4 4 7 11 14 11 4 7 8 8 9 9 9 9 7 4 3 3 3 3 2 2 2 2 1 1 2 2 1 2 1 0 3 4 3 1 1 2 4 5 4 2 3 3 2 4 2 3 4 4 4 4 5 5 4 3 1 2 5 8 9 9
4 4 5 5 7 9 8 5 3 2 2 2 2 4 3 1 0 1 1 0 1 1 2 2 1 3 4 6 6 11 14 10 10 15 15 14 11 10 10 8 4 3 3 3 2 2 2 1 1 0 1 1 3 1 0 1 2 3 3 1 1 2 3 2 3 3 2 3 2 3 4 2 4 4 4 4 5 6 4 3 4 5 2 3 4 6 12
5 5 5 5 7 9 7 4 2 2 2 1 2 3 1 1 2 1 1 1 0 1 2 2 1 3 3 3 1 7 11 8 7 12 12 9 8 8 9 7 3 2 3 2 1 2 2 2 1 0 1 0 3 2 2 2 1 4 3 1 1 1 2 2 1 2 2 2 1 3 2 1 2 2 3 3 4 5 3 2 3 4 4 4 4 6 12
5 5 5 6 7 8 6 4 2 3 3 2 1 1 1 2 2 1 1 1 1 1 2 2 1 2 2 2 3 5 8 5 4 6 5 4 4 5 6 5 3 2 3 3 2 0 2 2 3 2 1 1 3 2 2 3 3 4 4 3 1 1 1 1 3 3 2 2 3 2 4 4 1 1 2 5 4 3 2 3 2 1 2 4 4 5 12
5 5 5 6 8 7 4 3 3 3 3 3 3 2 3 3 3 1 1 1 0 0 1 2 0 1 2 2 3 5 6 4 3 3 3 2 1 2 3 3 3 2 2 2 1 1 1 2 3 2 1 1 2 2 1 3 4 4 3 2 0 2 3 2 3 4 4 3 2 3 3 4 3 4 5 6 6 6 7 7 4 1 2 2 2 0 7
5 4 5 6 6 4 3 2 2 1 0 1 1 2 4 3 2 1 1 1 1 2 1 1 1 2 2 1 2 4 5 3 1 1 1 2 1 2 1 2 3 2 1 0 1 0 1 1 3 2 0 1 2 2 2 3 3 3 1 2 2 2 3 4 4 4 4 3 1 2 4 5 6 6 5 5 6 8 9 9 7 3 2 4 2 3 4
5 4 5 5 4 2 2 2 2 1 0 1 1 4 4 0 1 2 3 1 2 1 1 0 2 1 1 2 2 3 3 2 0 1 1 1 2 1 2 1 2 1 1 1 1 0 1 2 3 2 1 0 1 1 3 3 3 2 1 1 2 2 3 2 2 3 4 3 3 3 3 3 3 4 5 5 6 7 7 7 7 5 3 4 5 4 6
4 4 4 3 1 1 1 1 1 2 1 0 3 5 3 1 2 5 5 2 0 1 1 0 1 2 1 1 3 3 2 1 1 1 1 1 1 1 2 3 1 1 1 1 1 1 2 1 3 2 0 1 2 3 4 5 4 3 2 1 1 0 2 2 2 2 4 5 4 3 3 4 4 4 5 5 6 6 6 6 6 5 4 5 5 5 7
4 3 1 1 1 1 1 1 2 3 2 1 2 3 3 3 4 4 2 1 1 3 1 1 1 3 3 2 2 1 1 1 1 1 1 1 1 0 2 2 1 2 1 1 1 3 1 1 3 3 2 3 3 4 3 3 4 4 3 2 2 2 2 2 2 1 3 5 5 4 3 3 4 4 4 5 6 5 5 6 5 6 6 6 5 5 7
3 1 3 3 1 1 1 1 3 4 3 1 1 1 2 3 2 1 1 1 1 2 1 2 2 2 2 1 1 1 1 0 1 1 0 1 1 1 1 1 1 1 1 1 3 2 2 2 2 2 2 3 3 3 3 3 3 3 3 3 4 3 3 3 2 3 2 3 4 4 4 4 5 5 5 5 5 5 5 5 5 7 8 8 8 9 11
2 3 3 2 1 0 1 2 4 4 3 2 1 1 1 1 1 0 1 1 1 1 1 2 3 3 3 2 3 2 2 2 1 1 1 1 0 1 0 0 0 1 1 1 2 1 1 1 0 1 1 3 3 3 3 2 3 3 4 4 4 4 5 4 3 3 4 4 4 5 5 5 6 6 5 5 5 5 6 4 4 6 8 9 12 14 13
3 2 1 1 1 0 1 3 4 4 2 1 1 1 0 1 1 1 1 1 0 1 2 2 3 3 4 4 3 3 2 3 2 2 2 1 1 2 1 0 0 1 1 2 2 2 2 1 1 0 2 3 3 3 2 1 2 4 4 4 5 6 5 5 4 5 6 7 8 9 8 8 8 7 6 5 5 4 4 4 6 11 13 13 14 14 15
1 1 0 1 2 3 1 2 3 2 1 0 0 0 0 1 2 1 1 1 1 2 2 2 1 2 3 4 4 2 2 2 2 2 2 1 1 1 2 0 0 1 0 3 2 2 2 1 1 2 4 4 3 3 2 2 3 4 4 6 7 6 5 5 6 7 7 6 7 9 10 10 9 9 9 9 8 6 5 6 8 11 15 15 14 14 16
1 1 2 5 6 3 2 2 2 1 0 1 1 1 1 1 1 1 0 1 1 1 1 2 2 3 3 4 3 2 2 2 1 2 1 1 1 1 2 0 1 1 2 3 1 2 1 1 1 3 4 4 3 3 2 3 4 4 5 7 7 6 6 6 7 9 10 9 8 9 11 11 10 10 11 10 8 8 9 10 11 11 14 16 16 16 18
2 2 4 5 3 1 2 1 1 1 1 2 1 1 2 1 1 0 1 1 1 1 1 1 1 1 1 1 1 1 1 2 2 1 1 1 1 1 2 1 0 1 3 2 2 2 1 2 3 4 4 3 3 4 3 4 4 4 5 7 7 7 8 8 8 9 11 11 11 10 10 10 10 9 8 7 9 8 7 7 10 14 18 18 17 17 18
3 2 1 2 1 1 1 1 0 1 1 1 1 1 1 2 1 1 1 1 1 1 2 2 1 1 1 1 0 1 1 1 1 1 0 1 0 1 1 1 2 2 1 1 2 1 2 2 3 4 2 1 1 2 3 3 3 3 4 7 9 11 11 10 9 9 9 10 11 11 10 10 10 8 7 9 11 10 7 4 7 14 20 20 17 16 18
2 1 1 2 2 1 1 1 1 1 1 2 2 2 2 2 2 3 3 3 2 2 3 2 3 3 2 2 0 1 1 1 1 0 1 0 1 0 2 2 2 1 1 1 2 1 2 3 2 0 1 1 1 2 3 3 4 4 5 6 8 10 10 9 8 8 8 10 12 12 11 11 10 9 9 10 11 14 14 13 13 15 19 20 18 17 17
1 1 2 2 1 1 1 1 1 1 2 3 3 3 4 4 4 4 3 3 3 3 4 3 4 3 2 1 0 0 1 2 1 1 1 2 1 2 2 1 1 0 0 0 1 2 2 2 1 2 2 1 2 3 4 4 4 5 5 5 6 8 9 10 9 9 10 12 14 14 13 13 12 12 12 11 9 10 12 16 19 21 21 20 19 19 19
1 1 2 2 1 1 1 2 3 3 3 3 4 4 4 4 4 4 3 3 4 4 3 2 2 2 1 1 1 1 1 2 1 1 1 2 1 2 0 2 1 1 1 1 2 3 2 2 2 3 3 2 2 3 4 4 4 5 6 6 6 8 10 10 10 10 11 11 11 12 12 12 13 13 12 11 10 10 11 14 20 24 25 24 22 21 21
1 0 1 2 1 2 2 3 3 3 3 3 3 3 2 2 2 3 3 2 3 3 3 2 1 0 1 0 1 2 1 1 1 2 1 2 1 1 1 1 0 1 1 3 3 3 3 3 4 4 3 0 1 3 4 4 5 6 6 6 7 9 10 10 10 11 11 10 9 9 9 9 11 12 12 12 12 12 14 17 20 21 22 23 22 22 21
1 0 1 1 1 2 3 2 1 2 4 3 3 3 2 2 3 4 3 2 2 3 3 3 3 1 1 2 1 1 1 1 1 1 1 1 1 1 1 2 1 1 1 3 3 3 4 4 4 3 2 2 3 3 4 5 5 6 6 8 9 12 12 12 12 12 11 11 10 9 9 9 10 11 12 12 12 14 17 21 23 23 22 22 21 21 21
1 0 1 1 1 2 3 2 1 3 4 3 2 2 2 3 3 4 2 2 2 1 2 2 2 1 1 1 1 1 2 2 2 1 1 2 2 1 1 2 3 4 3 3 3 4 4 4 4 4 3 1 2 3 4 4 4 6 9 11 12 14 13 12 11 11 11 12 12 11 10 10 13 13 13 15 18 19 18 18 19 21 21 20 20 20 20
0 1 2 3 3 3 3 1 1 3 4 3 3 4 3 3 3 4 3 3 2 2 2 1 1 1 2 1 0 1 1 1 1 2 1 2 1 2 2 3 4 4 4 4 4 4 4 4 4 4 2 0 1 2 4 5 6 9 11 12 12 13 12 11 10 10 11 11 11 9 8 10 13 14 14 16 20 19 16 15 18 20 20 18 18 19 20
1 1 2 3 3 4 4 3 3 4 5 4 4 4 3 3 4 4 3 4 3 2 3 2 1 2 1 2 2 1 0 0 0 1 1 1 0 2 3 4 4 5 5 5 4 4 4 3 4 5 3 1 2 3 4 6 8 10 11 12 12 12 12 11 10 8 7 7 5 3 4 6 9 11 14 16 18 15 12 14 18 20 20 19 19 19 19
Wind_Direction
352 352 355 356 359 1 359 360 359 357 357 358 2 4 10 82 278 280 307 289 200 124 25 279 141 199 237 200 137 15 8 20 6 355 4 16 25 45 52 112 84 78 113 84 58 72 53 6 31 90 72 23 286 299 347 9 23 44 23 305 310 325 67 29 310 292 298 297 319 350 353 11 36 340 349 22 259 173 145 178 174 104 102 113 85 67 126
353 352 355 357 360 1 360 0 0 358 356 355 359 11 355 252 267 287 321 314 166 124 201 260 276 253 265 57 53 26 20 28 30 5 347 354 18 23 9 68 101 106 114 100 124 143 92 46 8 44 96 277 293 325 359 17 26 37 195 263 335 341 18 56 15 344 346 349 0 2 359 18 23 309 328 335 287 166 131 100 71 94 179 151 119 124 155
353 352 356 358 0 1 0 1 2 358 353 350 353 12 288 322 276 276 312 330 98 129 197 175 125 10 49 67 62 42 2 353 58 40 338 347 29 11 321 341 101 111 102 80 67 105 119 115 340 10 48 285 294 335 349 5 18 330 262 239 147 101 191 113 101 81 50 23 4 332 330 341 315 308 336 338 326 86 125 109 66 98 168 124 116 133 115
354 353 357 359 0 2 1 2 4 359 351 349 346 238 142 24 13 314 315 344 51 7 241 117 88 36 59 62 15 63 295 301 29 38 358 352 19 359 322 349 43 89 89 87 57 66 106 117 70 36 359 302 270 313 333 351 0 344 336 348 92 113 32 79 122 155 168 183 220 229 264 303 306 331 347 341 339 51 99 107 107 146 131 61 86 142 131
356 355 357 0 1 2 2 3 5 2 358 1 4 247 90 70 17 15 338 328 8 358 355 58 70 54 85 79 336 23 67 20 15 21 4 357 14 5 353 4 15 127 96 86 85 53 26 31 44 44 317 295 293 327 344 359 1 2 3 6 58 85 17 25 92 261 249 219 234 261 291 288 310 343 350 346 359 45 56 68 147 148 120 54 224 142 135
357 356 358 2 2 3 3 5 7 8 12 24 31 20 30 41 270 357 54 276 294 21 20 59 74 53 68 84 12 39 59 57 31 1 343 354 18 28 11 10 17 71 99 107 80 44 44 18 359 348 3 4 358 354 350 355 0 8 9 360 66 101 358 312 42 352 330 317 302 318 326 322 343 357 360 354 2 59 83 90 149 139 127 141 153 135 132
358 357 360 2 3 5 5 7 10 14 25 41 46 40 340 23 331 303 350 328 242 276 353 76 91 58 49 53 28 54 70 56 35 14 2 350 1 49 70 28 26 34 48 91 81 43 68 21 338 352 18 14 36 22 335 334 351 10 19 354 56 111 322 319 37 23 340 345 350 343 339 339 351 1 8 4 7 64 90 77 84 92 114 128 126 113 108
359 359 1 2 4 6 6 8 13 18 30 49 55 51 14 14 299 309 349 346 305 316 2 63 92 46 34 50 12 40 80 61 27 37 49 16 349 15 60 50 47 48 46 65 65 28 86 117 345 24 37 14 44 78 275 288 334 2 16 338 348 64 333 324 34 59 340 348 357 344 333 327 16 10 7 8 17 50 72 85 88 85 101 120 120 114 104
1 1 2 2 5 7 8 10 13 20 32 44 58 38 8 334 269 295 25 335 332 355 1 47 93 44 16 71 23 29 69 65 46 21 43 88 44 22 54 52 48 52 43 45 36 5 24 46 328 348 43 199 189 172 205 198 4 359 359 337 346 23 340 333 42 64 336 336 355 343 327 341 54 19 357 359 29 75 89 108 117 113 116 119 116 115 126
3 2 3 4 5 7 10 12 13 20 31 40 54 6 0 355 320 337 86 247 341 5 346 4 90 118 254 117 75 75 75 58 67 49 343 25 43 38 69 71 59 47 32 15 337 332 337 305 292 316 333 277 270 229 218 147 116 75 353 359 339 1 27 9 47 72 320 319 342 345 340 28 46 352 332 0 72 127 107 81 124 134 134 133 130 127 134
3 3 4 4 4 5 10 13 15 19 26 34 47 8 359 360 320 329 58 64 330 360 360 355 92 177 199 87 78 78 67 46 62 109 356 6 33 40 57 75 80 61 9 298 275 311 322 301 301 339 352 354 4 358 7 81 105 131 104 53 337 1 49 34 46 100 286 305 338 15 25 50 1 298 321 20 55 108 100 91 118 121 113 118 122 123 121
1 1 4 4 3 2 7 12 16 20 24 28 39 24 7 0 323 319 70 85 304 350 18 348 39 88 87 87 85 78 74 63 61 107 115 42 44 48 46 64 81 42 288 283 319 360 352 335 339 346 349 356 4 12 24 48 89 110 105 109 48 14 24 356 23 110 215 318 23 52 70 130 316 323 354 27 45 78 83 75 82 94 99 108 113 118 118
359 360 3 4 2 360 2 10 15 19 23 27 35 32 17 11 5 27 82 103 288 321 334 324 17 64 69 81 95 94 93 84 55 63 91 67 59 67 51 58 78 310 303 356 33 33 11 343 345 335 339 357 6 6 0 355 50 78 70 86 101 61 21 1 30 94 312 12 61 108 206 266 360 351 359 18 33 68 77 59 41 72 104 115 115 116 115
357 358 2 3 1 360 358 3 11 16 23 28 33 35 23 19 21 349 66 90 267 273 218 352 7 53 58 60 90 90 71 69 57 49 84 90 78 79 73 85 57 337 8 49 46 46 44 8 17 357 343 6 12 347 326 330 51 90 77 67 96 101 70 37 12 2 53 72 74 215 280 334 1 349 336 344 330 345 96 91 40 14 26 105 120 121 118
354 357 2 1 1 1 357 357 5 10 18 25 30 35 26 19 17 348 230 111 258 301 42 17 341 61 69 47 85 88 46 47 63 10 1 50 93 90 94 123 60 7 26 59 58 54 55 49 56 15 333 20 28 304 311 328 355 92 97 85 81 91 105 114 98 356 50 79 39 4 329 281 282 285 294 309 316 328 94 101 75 346 345 32 119 127 125
351 356 0 360 0 1 358 357 358 1 11 20 25 34 28 19 15 360 313 124 95 25 353 329 326 81 86 13 56 101 110 108 126 19 354 347 74 118 124 110 61 38 51 62 56 67 59 47 93 126 245 199 176 261 314 348 336 356 41 62 59 52 60 91 92 11 21 81 78 357 195 220 244 258 286 309 318 356 85 89 64 290 90 101 122 128 127
350 355 357 359 0 360 359 358 356 357 3 9 16 30 33 24 16 5 343 105 75 196 266 327 352 62 74 12 6 59 129 146 102 98 31 286 244 100 32 357 26 45 77 70 33 45 50 19 52 69 276 241 131 112 316 2 14 337 349 22 36 33 27 47 67 357 358 90 117 258 211 227 260 272 286 297 310 48 80 95 221 274 257 166 163 155 147
349 352 354 359 360 360 1 359 356 357 358 2 13 30 40 32 21 13 21 83 48 266 287 338 10 45 41 103 198 281 73 85 62 78 184 289 327 113 214 27 11 356 55 76 64 56 43 331 212 131 220 298 61 103 245 337 234 251 270 34 20 15 24 63 122 171 210 153 179 268 261 241 251 272 290 305 352 64 85 162 218 266 324 195 169 156 152
349 349 352 358 360 359 0 360 357 355 355 1 12 33 51 42 26 22 30 65 78 252 294 330 13 23 351 6 60 4 27 81 90 90 68 350 293 267 319 60 42 332 31 67 74 102 79 323 267 127 114 318 350 113 161 231 223 224 74 59 23 341 347 341 157 174 205 171 151 319 290 259 247 264 300 354 42 106 189 201 220 236 66 86 130 144 145
351 348 349 356 360 360 359 359 358 354 355 360 6 35 58 42 25 27 34 44 68 296 281 319 9 355 346 22 36 5 19 45 59 96 123 217 260 23 29 9 325 357 39 57 32 54 96 335 316 59 92 267 262 113 106 279 257 211 133 111 202 182 164 302 245 212 209 114 101 81 250 263 291 314 329 18 89 184 203 140 79 43 66 76 87 112 124
348 343 347 355 358 359 358 357 357 354 356 1 359 8 33 25 19 21 18 25 121 96 287 317 338 327 323 319 305 316 85 113 111 115 146 243 293 87 111 222 228 102 90 124 80 30 96 253 314 9 66 245 28 82 113 317 310 284 161 132 264 221 172 205 264 273 55 84 190 200 222 256 293 84 148 275 148 168 167 125 89 58 55 65 74 82 101
340 332 340 352 357 358 357 356 355 354 356 2 358 353 3 7 10 11 2 340 172 213 276 300 313 307 303 302 301 323 88 117 128 114 119 305 341 100 143 184 147 177 184 118 98 36 355 58 57 29 351 330 10 359 155 122 318 301 306 104 257 247 198 164 177 235 179 171 207 217 223 250 340 98 138 147 103 113 128 118 100 83 74 74 85 91 100
329 322 331 347 354 357 357 354 353 354 356 0 359 358 4 4 5 10 14 16 230 267 271 288 304 300 299 294 261 256 24 89 99 94 100 106 357 351 52 67 66 40 42 105 138 152 136 149 140 101 53 270 51 15 351 66 278 295 316 153 227 277 298 125 127 287 288 119 115 212 220 176 103 93 108 111 99 95 102 97 89 94 102 101 102 108 116
320 311 324 343 350 354 356 355 352 352 353 356 355 352 5 14 10 9 13 33 32 357 297 297 310 299 324 322 238 221 233 143 111 96 97 113 113 11 316 295 86 64 12 246 182 131 115 166 133 93 111 255 93 90 17 339 298 325 358 328 316 349 13 46 46 7 7 9 354 344 297 245 135 110 91 80 87 94 101 103 108 112 108 106 106 104 108
312 298 315 337 345 350 353 352 351 352 350 351 352 348 355 21 22 15 15 19 27 46 11 320 300 338 355 357 353 188 175 149 143 148 143 131 129 146 193 211 93 108 163 220 87 78 84 65 69 95 144 280 28 125 153 241 260 90 66 306 290 335 12 27 7 1 126 197 306 323 337 324 7 77 93 101 107 111 111 116 126 123 109 104 108 109 108
301 284 304 327 338 345 349 350 352 351 345 346 353 355 3 30 32 27 25 7 4 75 64 293 281 331 355 359 355 352 61 156 157 161 166 157 150 160 157 124 96 101 123 115 79 94 116 94 81 116 195 244 121 144 178 204 215 78 123 228 223 317 354 22 24 347 354 333 324 350 34 25 3 9 15 13 86 130 131 124 117 113 106 99 102 113 125
280 267 294 317 331 339 343 347 350 342 340 345 349 360 34 65 45 31 18 4 27 81 15 283 273 322 337 336 339 348 349 156 138 111 152 193 192 176 153 129 111 92 83 72 53 81 97 78 86 154 195 218 74 90 196 215 123 83 263 262 258 24 302 321 79 29 325 267 287 339 77 92 328 350 10 7 7 80 126 130 130 131 130 119 109 114 127
263 259 283 303 325 336 338 343 347 335 332 335 343 27 69 83 62 42 26 18 53 138 200 247 273 312 325 320 332 345 346 147 126 94 66 246 189 168 149 128 116 100 88 86 64 66 89 107 147 181 178 111 41 341 323 11 56 169 253 263 241 170 199 168 134 166 219 221 234 226 119 154 278 330 3 10 22 44 48 48 157 167 161 147 136 133 133
249 254 274 295 321 331 332 336 340 320 324 340 18 93 94 90 70 46 24 22 39 77 141 310 308 314 315 305 323 348 6 64 107 94 78 68 78 100 105 96 99 113 107 104 101 98 121 153 154 178 181 139 131 305 322 47 130 249 250 242 195 175 169 155 157 169 205 221 220 134 107 153 265 311 345 355 22 50 38 1 348 320 205 183 164 156 156
239 250 271 295 318 326 326 333 335 308 321 359 82 106 88 69 228 257 256 149 30 33 75 76 321 307 302 290 322 9 19 36 79 85 79 74 73 80 86 84 79 80 82 82 95 115 141 165 117 338 300 131 126 134 227 171 219 258 251 203 60 30 42 93 135 147 188 233 216 114 112 171 261 284 299 331 9 34 47 39 34 30 347 249 220 187 171
237 249 273 298 315 321 322 321 316 300 300 317 116 109 70 270 221 226 232 177 220 24 86 110 255 298 313 291 340 18 3 6 70 85 81 77 74 79 89 90 69 50 79 88 90 118 153 175 145 123 299 100 119 133 150 149 240 281 268 245 331 58 88 65 62 125 178 215 73 54 35 1 344 324 300 311 352 22 29 10 27 28 351 309 280 233 202
240 251 280 304 313 319 320 313 304 290 275 269 261 212 193 179 154 90 76 147 169 126 97 74 330 320 316 291 316 359 356 355 52 75 66 60 61 57 56 58 55 79 99 101 88 115 190 170 140 141 202 117 105 109 136 151 204 248 235 212 234 62 87 16 13 40 42 54 81 49 334 333 27 143 250 281 302 327 311 296 321 14 300 310 325 251 221
240 256 286 307 315 320 316 301 295 285 272 280 284 227 155 123 90 62 102 147 111 335 116 106 90 275 262 268 320 0 10 8 25 44 26 1 57 74 37 27 44 60 65 94 150 209 223 121 113 120 293 350 92 113 181 208 213 221 214 199 214 10 3 1 49 55 24 14 86 146 228 261 265 251 252 268 285 290 282 279 288 285 219 240 11 49 206
241 265 297 310 315 318 305 294 295 270 294 356 307 170 137 95 41 43 181 182 20 357 348 96 130 270 300 341 340 350 15 33 41 46 5 330 28 97 99 5 22 32 9 167 171 227 340 71 110 125 279 351 83 116 240 241 205 192 227 282 314 1 13 27 50 42 360 338 338 229 234 251 276 286 282 275 276 279 278 272 272 274 204 181 140 84 121
247 278 303 311 315 312 297 302 290 234 268 8 226 190 172 39 338 167 173 167 60 54 298 169 154 222 341 12 306 309 15 61 219 201 170 290 359 80 126 72 28 337 214 161 110 149 202 154 135 137 193 137 116 199 227 203 177 179 221 293 314 5 48 53 22 339 324 321 325 319 316 328 315 289 277 276 269 263 264 262 256 249 218 193 178 135 114
262 294 311 323 333 314 296 294 222 201 205 206 198 196 199 224 179 169 176 192 137 178 215 33 133 179 153 160 254 278 30 52 270 242 121 90 351 27 97 85 49 254 213 85 102 187 209 166 124 109 147 181 188 226 217 183 180 196 181 178 278 107 122 175 230 276 316 328 336 352 14 15 343 299 279 281 279 262 249 247 243 229 205 193 184 163 141
282 307 332 112 105 53 349 301 187 178 183 201 192 189 188 166 149 152 175 229 227 215 184 81 218 211 175 177 242 280 51 43 278 3 44 156 190 142 77 92 170 244 2 28 214 199 187 95 110 127 185 217 217 231 222 184 186 193 181 201 234 191 177 232 230 82 3 336 333 341 347 331 307 292 284 286 291 276 244 229 227 217 201 185 174 166 146
283 223 139 124 92 68 69 219 195 179 181 206 160 153 171 159 133 90 328 120 181 222 160 134 232 236 145 129 236 209 156 199 357 34 283 208 137 62 54 105 184 220 9 282 237 179 90 32 78 141 209 255 253 236 219 193 196 207 206 221 223 202 215 241 201 122 61 333 318 309 308 305 294 284 275 275 277 268 246 230 221 215 205 183 156 143 133
151 142 131 111 94 131 169 189 187 183 184 187 152 136 175 153 111 321 255 128 101 275 196 185 225 209 152 167 257 250 169 122 52 9 259 266 100 144 175 191 196 106 79 265 253 116 90 321 18 117 264 286 281 256 236 203 213 236 242 238 232 222 222 232 221 195 206 230 241 240 244 261 271 269 264 268 271 261 248 231 180 164 164 154 144 139 135
142 134 119 122 143 39 96 159 175 181 181 181 178 170 152 141 147 181 189 120 102 219 195 196 225 209 165 170 230 250 181 150 149 179 207 241 211 146 130 122 174 117 127 257 236 126 128 169 116 105 255 248 243 250 257 241 246 259 257 250 249 241 227 232 257 258 238 233 240 243 243 248 253 253 251 255 257 250 236 198 146 140 143 144 144 143 142
110 57 115 251 301 322 316 195 191 187 132 90 184 169 139 220 226 201 151 141 229 238 205 172 196 239 208 179 181 211 213 192 172 148 148 261 300 101 116 216 186 103 184 244 215 124 103 114 138 232 242 232 234 260 293 307 296 293 286 276 277 276 264 266 284 288 278 262 251 252 255 255 255 259 261 250 232 214 199 181 162 154 152 152 150 146 141
115 347 310 300 301 290 230 219 223 205 98 50 3 325 288 236 237 244 160 181 205 228 218 181 185 212 211 182 165 181 206 193 142 86 99 261 278 130 132 143 58 83 234 235 173 102 98 147 211 251 250 238 242 261 277 274 265 264 270 275 283 290 288 284 285 284 281 276 267 261 258 252 251 265 272 255 223 199 189 180 170 156 148 148 148 143 138
231 286 305 307 298 194 176 239 270 112 63 44 54 353 308 295 281 292 278 255 232 183 208 230 237 244 221 178 128 81 122 146 129 93 116 222 244 86 86 71 114 205 225 214 107 100 162 191 211 237 241 236 241 249 254 259 263 268 275 283 295 303 297 287 281 280 279 278 278 277 269 255 250 261 262 224 192 181 180 175 161 147 140 140 141 140 139
197 230 287 311 290 136 123 336 20 95 50 330 157 159 249 279 277 257 244 243 244 224 214 196 138 131 224 232 118 76 85 113 90 76 158 232 205 90 116 226 229 216 212 80 88 127 205 214 223 235 240 246 278 279 278 286 304 316 310 306 311 313 306 295 288 286 283 280 281 284 277 260 247 236 217 198 183 167 148 136 145 144 140 137 134 135 138
146 146 69 25 336 334 94 24 9 104 178 232 204 172 185 209 214 223 224 208 186 214 236 203 149 154 209 243 102 120 169 85 70 107 192 100 52 158 215 222 218 189 137 97 114 158 226 252 259 236 97 83 332 318 317 315 312 310 305 304 305 303 297 290 283 278 274 274 275 275 270 260 243 220 206 203 190 171 164 168 166 152 141 136 134 136 139
136 173 114 104 280 267 134 128 270 200 189 210 205 188 189 197 204 218 222 193 175 216 239 216 168 166 210 251 58 157 161 116 120 212 172 106 110 234 222 178 125 169 142 99 155 194 218 233 206 136 143 205 282 303 304 300 299 299 295 292 289 287 287 286 281 274 273 274 271 265 258 249 234 217 205 198 192 185 182 177 166 153 143 139 139 140 141
286 291 97 109 252 275 176 190 221 219 211 210 206 201 199 198 208 229 230 188 181 203 221 199 159 170 204 185 166 215 192 124 140 237 168 120 171 256 278 83 113 209 178 186 217 211 192 190 197 199 204 231 295 315 311 307 308 309 304 298 293 292 292 290 284 278 279 282 278 269 260 247 232 218 201 186 185 194 193 180 167 158 152 149 146 143 140
226 338 104 137 201 227 210 204 215 238 242 237 236 238 222 179 197 239 249 225 194 191 183 161 140 269 299 227 179 197 204 136 165 248 213 140 153 292 348 90 245 257 156 176 194 182 168 188 205 203 199 209 1 348 329 317 311 309 306 302 298 295 292 287 280 274 276 281 281 272 261 245 226 209 190 177 177 181 179 175 168 157 148 145 145 143 141
226 70 141 187 220 247 238 217 209 272 263 260 269 274 250 188 213 240 251 256 234 206 178 146 122 131 251 252 189 173 210 203 194 233 236 143 164 236 177 156 196 247 204 182 176 167 177 192 187 162 114 47 22 344 309 300 300 303 303 298 294 291 286 278 272 271 274 278 277 267 251 233 213 193 174 162 160 164 171 173 166 154 148 151 152 147 144
235 152 188 200 244 288 291 310 337 289 282 284 279 253 206 190 227 249 238 203 203 153 86 71 75 130 232 285 37 350 267 239 177 138 183 212 206 174 115 151 206 217 198 172 159 163 176 177 150 123 100 46 348 308 302 308 315 312 308 304 303 302 298 288 281 284 287 286 282 273 252 222 200 187 178 171 166 166 169 168 156 146 148 157 158 151 147
278 291 244 217 210 236 267 278 262 268 273 268 247 229 191 176 220 238 208 169 141 92 86 195 212 97 66 37 165 203 250 258 119 126 202 229 186 119 146 198 213 197 166 156 154 157 162 153 130 122 120 38 323 308 314 321 318 313 314 317 321 325 324 316 305 297 295 294 290 275 244 213 198 192 183 168 158 152 147 142 138 138 143 155 162 159 157
190 244 264 252 231 229 241 248 254 258 253 239 230 220 189 190 225 227 164 127 128 165 201 205 145 100 124 224 215 170 132 355 191 195 226 247 196 165 187 197 186 156 147 150 149 146 148 144 139 140 139 90 16 346 332 326 320 319 325 333 338 341 339 333 324 313 306 306 297 249 203 186 181 176 164 149 140 134 130 132 141 148 155 164 172 172 167